Rexburg, ID

5:01 AM MDT on August 17, 2017 (GMT -0600)
Rexburg-Madison County

Weather History for KRXE - February, 2014

Change the Weather History Date:

Thursday, February 20, 2014

  Actual Average Record
Temperature  
Mean Temperature 24 °F 24 °F  
Max Temperature 33 °F 34 °F 46 °F (2015)
Min Temperature 15 °F 13 °F -4 °F (2010)
Degree Days  
Heating Degree Days 41 42  
Month to date heating degree days 831 878  
Since 1 July heating degree days 5561 5655  
Cooling Degree Days 0 0  
Month to date cooling degree days 0 0  
Year to date cooling degree days 0 0  
Moisture  
Dew Point 17 °F    
Average Humidity 68    
Maximum Humidity 78    
Minimum Humidity 58    
Precipitation  
Precipitation 0.00 in 0.03 in 0.49 in (1980)
Month to date precipitation 0.50 0.59  
Year to date precipitation 1.36 1.33  
Sea Level Pressure  
Sea Level Pressure 30.13 in    
Wind  
Wind Speed 16 mph (SSW)    
Max Wind Speed 33 mph    
Max Gust Speed 43 mph    
Visibility 10 miles    
Events      
T = Trace of Precipitation, MM = Missing Value Source: NWS Daily Summary

Daily Weather History Graph

Daily Weather History Graph

Search for Another Location

Airport or City:

Trip Planner

Search our weather history database for the weather conditions in past years. The results will help you decide how hot, cold, wet, or windy it might be!

Date:

Astronomy

Feb. 20, 2014 Rise Set
Actual Time 7:18 AM MST 6:04 PM MST
Civil Twilight 6:49 AM MST 6:33 PM MST
Nautical Twilight 6:15 AM MST 7:06 PM MST
Astronomical Twilight 5:42 AM MST 7:40 PM MST
Moon No Moon Rise 9:51 AM MST (2/20)
Length of Visible Light 11h 44m
Length of Day
10h 45m
Waning Gibbous, 70% of the Moon is Illuminated
Feb 20
Waning Gibbous
Feb 22
Last Quarter
Mar 1
New
Mar 8
First Quarter
Mar 16
Full

Hourly Weather History & Observations

Time (MST) Temp. Windchill Dew Point Humidity Pressure Visibility Wind Dir Wind Speed Gust Speed Precip Events Conditions
12:53 AM 19.0 °F 13.9 °F 10.9 °F 71% 30.12 in 10.0 mi SSW 3.5 mph - N/A   Clear
1:53 AM 19.0 °F 12.3 °F 14.0 °F 81% 30.13 in 10.0 mi South 4.6 mph - N/A   Clear
2:53 AM 19.0 °F 11.1 °F 12.9 °F 77% 30.15 in 10.0 mi South 5.8 mph - N/A   Clear
3:53 AM 19.0 °F 11.1 °F 12.9 °F 77% 30.17 in 10.0 mi South 5.8 mph - N/A   Clear
4:53 AM 19.0 °F 12.3 °F 12.9 °F 77% 30.19 in 10.0 mi South 4.6 mph - N/A   Clear
5:53 AM 19.0 °F 7.5 °F 12.9 °F 77% 30.21 in 10.0 mi SSW 10.4 mph - N/A   Clear
6:53 AM 18.0 °F 6.1 °F 10.9 °F 74% 30.24 in 10.0 mi South 10.4 mph - N/A   Partly Cloudy
7:53 AM 19.0 °F 8.2 °F 10.9 °F 71% 30.26 in 10.0 mi South 9.2 mph - N/A   Clear
8:53 AM 19.9 °F 7.3 °F 12.0 °F 71% 30.27 in 10.0 mi South 12.7 mph 18.4 mph N/A   Partly Cloudy
9:53 AM 23.0 °F 11.1 °F 14.0 °F 68% 30.27 in 10.0 mi South 12.7 mph 21.9 mph N/A   Clear
10:53 AM 26.1 °F 14.0 °F 17.1 °F 69% 30.25 in 10.0 mi South 15.0 mph 20.7 mph N/A   Scattered Clouds
11:53 AM 28.9 °F 17.3 °F 19.0 °F 67% 30.22 in 10.0 mi South 16.1 mph 23.0 mph N/A   Partly Cloudy
12:20 PM 30.0 °F 18.7 °F 19.0 °F 64% 30.09 in 10.0 mi SSW 16.1 mph 25.3 mph N/A   Mostly Cloudy
12:53 PM 30.9 °F 18.4 °F 19.0 °F 61% 30.18 in 10.0 mi SSW 20.7 mph 31.1 mph N/A   Mostly Cloudy
1:03 PM 32.0 °F 19.2 °F 19.0 °F 59% 30.06 in 10.0 mi SSW 23.0 mph 38.0 mph N/A   Mostly Cloudy
1:53 PM 30.9 °F 19.1 °F 18.0 °F 59% 30.15 in 10.0 mi SW 18.4 mph 31.1 mph N/A   Scattered Clouds
2:53 PM 32.0 °F 19.2 °F 19.0 °F 59% 30.11 in 10.0 mi SW 23.0 mph 34.5 mph N/A   Overcast
3:53 PM 32.0 °F 18.9 °F 19.0 °F 59% 30.09 in 10.0 mi SW 24.2 mph 40.3 mph N/A   Overcast
4:53 PM 32.0 °F 17.2 °F 19.0 °F 59% 30.06 in 10.0 mi SW 32.2 mph 42.6 mph N/A   Overcast
5:53 PM 32.0 °F 19.5 °F 19.9 °F 61% 30.04 in 10.0 mi SSW 21.9 mph 33.4 mph N/A   Overcast
6:53 PM 32.0 °F 19.2 °F 21.0 °F 64% 30.04 in 10.0 mi SSW 23.0 mph 36.8 mph N/A   Overcast
7:53 PM 32.0 °F 19.2 °F 21.0 °F 64% 30.03 in 10.0 mi SW 23.0 mph 34.5 mph N/A   Overcast
8:53 PM 30.9 °F 16.9 °F 21.0 °F 67% 30.02 in 10.0 mi SW 26.5 mph 34.5 mph N/A   Overcast
9:53 PM 30.0 °F 17.9 °F 21.9 °F 72% 30.03 in 10.0 mi SW 18.4 mph - N/A   Mostly Cloudy
10:53 PM 30.0 °F 17.5 °F 24.1 °F 79% 30.03 in 10.0 mi SW 19.6 mph 26.5 mph N/A   Overcast
11:53 PM 28.9 °F 19.2 °F 24.1 °F 82% 30.02 in 10.0 mi WSW 11.5 mph - N/A   Mostly Cloudy